Location: Asheville, NC
(35.6000°N, 82.5500°W)
Time: 19:37:07
(UTC-04:00)

STRAND 1 - Pass Details

Date: 14 March 2018
Orbit: 769 x 780 km, 98.5° (Epoch: 23 June)

Event Time Altitude Azimuth Distance (km) Brightness Sun altitude
Rises 21:44:59 0° 2° (N) 3,259 ? -26.5°
Reaches altitude 10° 21:47:28 10° 354° (N) 2,326 ? -27.0°
Maximum altitude 21:52:04 35° 290° (WNW) 1,234 ? -27.9°
Drops below altitude 10° 21:56:39 10° 226° (SW) 2,307 ? -28.7°
Sets 21:59:06 0° 217° (SW) 3,228 ? -29.2°
